星链-6083 (STARLINK-6083 )

导读 | 星芒AI

STARLINK-6083 是 SpaceX Starlink 项目中的一颗低轨通信卫星,属于第 24 批 Starlink 卫星发射任务的一部分。该卫星运行在约 550 公里的高度,旨在为全球用户提供高速互联网服务。Starlink 卫星采用先进推进系统和激光通信技术,以提升网络效率和减少延迟。STARLINK-6083 与其他 Starlink 卫星协同工作,支持偏远地区的宽带接入,推动全球互联网覆盖的扩展。

基本信息
目录编号:
56109
目录名称:
STARLINK-6083
国际标识:
2023-046S
轨道中心:
EARTH
卫星名称:
星链-6083
卫星全名:
星链-6083 (STARLINK-6083 )
卫星状态:
在轨 (已飞行951 天)
发射日期:
2023-03-29 UTC
国别 :
美国 (US)
星等 :
--
轨道信息
数据来源 国际轨道数据 AOE轨道数据
星历时间 2025-11-02T20:22:44+0800
1天前
查看轨道信息
2025-10-29T09:00:00+0800
5天前
查看轨道信息
半长轴 6937.231km 6937.212km
偏心率 0.0001388 0.0000236
轨道倾角 43.004° 43.006°
近地点辐角 262.933° 226.176°
升交点赤经 129.810° 154.125°
平近点角 97.136° 25.028°
近地点 558.133km 558.913km
远地点 560.059km 559.241km
周期 95.838分钟 95.838分钟
每日圈数 15.025315 15.025376
详细信息
固有亮度:
5
最大亮度:
2.5
卫星平台:
Starlink v1.5
覆盖范围:
全球
运营商:
太空探索技术公司
运营商所在国:
美国
制造商(研发单位):
太空探索技术公司
制造商所在国:
美国
使用方式:
暂无
卫星简介
星链(Starlink)计划是由太空探索技术公司(SpaceX)提出的一个巨型低轨卫星互联网星座项目,计划在2019年至2024年间在太空搭建由约1.2万颗卫星组成的“星链”网络,其中1584颗将部署在地球上空550千米处的近地轨道,并从2020年开始工作。该卫星仍在工作。
2D轨道图
3D轨道图
轨道高度分析图
轨道倾角分析图
轨道综合分析图
查看轨道综合分析图